Tracking 17560 objects as of 12-February-2016
HD Live streaming from Space Station
objects crossing your sky now

RUBIN 2

Track RUBIN 2 now!
10-day predictions
RUBIN 2 is classified as:


NORAD ID: 27605
Int'l Code: 2002-058A
Perigee: 597.4 km
Apogee: 708.8 km
Inclination: 64.6 °
Period: 97.6 minutes
Semi major axis: 7024 km
RCS: 0.234 m2 (medium)
Launch date: December 20, 2002
Source: Germany (GER)
Launch site: TYURATAM MISSILE AND SPACE COMPLEX (TTMTR)
Your satellite tracking list
Your tracking list is empty





NASA's NSSDC Master Catalog

Two Line Element Set (TLE):
1 27605U 02058A   16042.82255884  .00000489  00000-0  69118-4 0  9990
2 27605  64.5558 168.2591 0079287 242.5582 116.7939 14.7473557070712
Source of the keplerian elements: AFSPC

N2YO: 874